Açık ama puslu
Açık ama puslu
Açık ama puslu
Açık ama puslu
Açık ama puslu
Açık ama puslu
Açık ama puslu
Açık ama puslu
Açık, bulutsuz gökyüzü
(°C)
17°
17°
17°
17°
16°
16°
16°
16°
16°
16°
16°
16°
16°
16°
17°
17°
19°
19°
(°C)
18°
17°
17°
16°
16°
16°
16°
17°
19°
G
G
G
GGD
GGB
GGB
GGB
GGB
BGB
(km/h)
7-11
7-12
7-12
8-13
8-13
8-13
8-13
7-14
7-14
(mm)
0
0
0
0
0
0
0
0
0
(%)
0
0
0
0
0
0
0
0
0

Güneşin açısı

/ -22.1°
sun-icon
UV 6
05:38
21:02
Dolunay (185°)
21:41
04:59

İnnsbruck (LOWI) için METAR

Zaman Koşullar Sıcaklık/
Çiy noktası
Rüzgar Görünürlük Hava Bulutlar Basınç Değiştir Ham
VFR 17°C / 16°C 2kt 9700m - Clear 1012 - LOWI 202220Z AUTO VRB02KT 9999 NCD 17/16 Q1012
VFR 18°C / 16°C 2kt 9700m - Clear 1012 - LOWI 202150Z AUTO VRB02KT 9999 NCD 18/16 Q1012
VFR 18°C / 16°C 2kt 9700m - Clear 1013 - LOWI 202120Z AUTO VRB02KT 9999 NCD 18/16 Q1013
VFR 18°C / 16°C 2kt 9700m - Clear 1013 No Significant change LOWI 202050Z AUTO VRB02KT 9999 NCD 18/16 Q1013 NOSIG
VFR 19°C / 16°C 1kt 9700m - Clear 1012 No Significant change LOWI 202020Z AUTO VRB01KT 9999 NCD 19/16 Q1012 NOSIG
VFR 19°C / 17°C 1kt 9700m - Clear 1012 No Significant change LOWI 201950Z AUTO VRB01KT 9999 NCD 19/17 Q1012 NOSIG
VFR 20°C / 17°C 1kt 9700m - Clear 1012 No Significant change LOWI 201920Z VRB01KT 9999 NSC 20/17 Q1012 NOSIG
VFR 21°C / 17°C 1kt 9700m - Clear 1012 No Significant change LOWI 201850Z AUTO VRB01KT 9999 NCD 21/17 Q1012 NOSIG
VFR 22°C / 17°C 2kt 9700m - Clear 1012 No Significant change LOWI 201820Z AUTO VRB02KT 9999 NCD 22/17 Q1012 NOSIG
VFR 24°C / 18°C 1kt 9700m - Clear 1012 No Significant change LOWI 201750Z AUTO VRB01KT 9999 NCD 24/18 Q1012 NOSIG
VFR 24°C / 18°C 180º variable 150º to 210º 3kt 9700m - Clouds and Visibility OK 1012 No Significant change LOWI 201720Z 18003KT 150V210 CAVOK 24/18 Q1012 NOSIG
VFR 25°C / 19°C 2kt 9700m - Clear 1012 No Significant change LOWI 201650Z AUTO VRB02KT 9999 NCD 25/19 Q1012 NOSIG
VFR 25°C / 16°C 280º 4kt 9700m - Clear 1012 No Significant change LOWI 201620Z AUTO 28004KT 9999 NCD 25/16 Q1012 NOSIG
VFR 25°C / 17°C 280º 5kt 9700m - Clear 1012 No Significant change LOWI 201550Z AUTO 28005KT 9999 NCD 25/17 Q1012 NOSIG
VFR 26°C / 15°C 270º 4kt 9700m - Clear 1012 No Significant change LOWI 201520Z AUTO 27004KT 9999 NCD 26/15 Q1012 NOSIG
VFR 26°C / 14°C 2kt 9700m - Clear 1012 No Significant change LOWI 201450Z AUTO VRB02KT 9999 NCD 26/14 Q1012 NOSIG
VFR 25°C / 16°C 310º variable 200º to 010º 3kt 9700m - Clear 1012 No Significant change LOWI 201420Z AUTO 31003KT 200V010 9999 NCD 25/16 Q1012 NOSIG
VFR 24°C / 15°C 270º variable 240º to 300º 4kt 9700m - Clear 1013 No Significant change LOWI 201350Z AUTO 27004KT 240V300 9999 NCD 24/15 Q1013 NOSIG
VFR 23°C / 17°C 290º variable 240º to 340º 4kt 9700m - Clear 1013 No Significant change LOWI 201320Z AUTO 29004KT 240V340 9999 NCD 23/17 Q1013 NOSIG
VFR 23°C / 17°C 260º variable 220º to 280º 5kt 9700m - Clear 1014 No Significant change LOWI 201250Z AUTO 26005KT 220V280 9999 NCD 23/17 Q1014 NOSIG
VFR 22°C / 15°C 3kt 9700m - Clear 1014 No Significant change LOWI 201220Z AUTO VRB03KT 9999 NCD 22/15 Q1014 NOSIG
VFR 21°C / 16°C 290º variable 260º to 320º 4kt 9700m - Clear 1015 No Significant change LOWI 201150Z AUTO 29004KT 260V320 9999 NCD 21/16 Q1015 NOSIG
VFR 21°C / 16°C 270º variable 240º to 300º 5kt 9700m - Few Clouds 1200ft 1016 No Significant change LOWI 201120Z AUTO 27005KT 240V300 9999 FEW012 21/16 Q1016 NOSIG
VFR 20°C / 17°C 250º variable 200º to 280º 4kt 9700m - Few Clouds 1000ft 1016 No Significant change LOWI 201050Z AUTO 25004KT 200V280 9999 FEW010 20/17 Q1016 NOSIG

VFR

17°C / 16°C

[Daha fazla]
Rüzgar 2kt
Görünürlük 9700m
Hava -
Bulutlar Clear
Basınç 1012
Değiştir -
Ham LOWI 202220Z AUTO VRB02KT 9999 NCD 17/16 Q1012

VFR

18°C / 16°C

[Daha fazla]
Rüzgar 2kt
Görünürlük 9700m
Hava -
Bulutlar Clear
Basınç 1012
Değiştir -
Ham LOWI 202150Z AUTO VRB02KT 9999 NCD 18/16 Q1012

VFR

18°C / 16°C

[Daha fazla]
Rüzgar 2kt
Görünürlük 9700m
Hava -
Bulutlar Clear
Basınç 1013
Değiştir -
Ham LOWI 202120Z AUTO VRB02KT 9999 NCD 18/16 Q1013

VFR

18°C / 16°C

[Daha fazla]
Rüzgar 2kt
Görünürlük 9700m
Hava -
Bulutlar Clear
Basınç 1013
Değiştir No Significant change
Ham LOWI 202050Z AUTO VRB02KT 9999 NCD 18/16 Q1013 NOSIG

VFR

19°C / 16°C

[Daha fazla]
Rüzgar 1kt
Görünürlük 9700m
Hava -
Bulutlar Clear
Basınç 1012
Değiştir No Significant change
Ham LOWI 202020Z AUTO VRB01KT 9999 NCD 19/16 Q1012 NOSIG

VFR

19°C / 17°C

[Daha fazla]
Rüzgar 1kt
Görünürlük 9700m
Hava -
Bulutlar Clear
Basınç 1012
Değiştir No Significant change
Ham LOWI 201950Z AUTO VRB01KT 9999 NCD 19/17 Q1012 NOSIG

VFR

20°C / 17°C

[Daha fazla]
Rüzgar 1kt
Görünürlük 9700m
Hava -
Bulutlar Clear
Basınç 1012
Değiştir No Significant change
Ham LOWI 201920Z VRB01KT 9999 NSC 20/17 Q1012 NOSIG

VFR

21°C / 17°C

[Daha fazla]
Rüzgar 1kt
Görünürlük 9700m
Hava -
Bulutlar Clear
Basınç 1012
Değiştir No Significant change
Ham LOWI 201850Z AUTO VRB01KT 9999 NCD 21/17 Q1012 NOSIG

VFR

22°C / 17°C

[Daha fazla]
Rüzgar 2kt
Görünürlük 9700m
Hava -
Bulutlar Clear
Basınç 1012
Değiştir No Significant change
Ham LOWI 201820Z AUTO VRB02KT 9999 NCD 22/17 Q1012 NOSIG

VFR

24°C / 18°C

[Daha fazla]
Rüzgar 1kt
Görünürlük 9700m
Hava -
Bulutlar Clear
Basınç 1012
Değiştir No Significant change
Ham LOWI 201750Z AUTO VRB01KT 9999 NCD 24/18 Q1012 NOSIG

VFR

24°C / 18°C

[Daha fazla]
Rüzgar 180º variable 150º to 210º 3kt
Görünürlük 9700m
Hava -
Bulutlar Clouds and Visibility OK
Basınç 1012
Değiştir No Significant change
Ham LOWI 201720Z 18003KT 150V210 CAVOK 24/18 Q1012 NOSIG

VFR

25°C / 19°C

[Daha fazla]
Rüzgar 2kt
Görünürlük 9700m
Hava -
Bulutlar Clear
Basınç 1012
Değiştir No Significant change
Ham LOWI 201650Z AUTO VRB02KT 9999 NCD 25/19 Q1012 NOSIG

VFR

25°C / 16°C

[Daha fazla]
Rüzgar 280º 4kt
Görünürlük 9700m
Hava -
Bulutlar Clear
Basınç 1012
Değiştir No Significant change
Ham LOWI 201620Z AUTO 28004KT 9999 NCD 25/16 Q1012 NOSIG

VFR

25°C / 17°C

[Daha fazla]
Rüzgar 280º 5kt
Görünürlük 9700m
Hava -
Bulutlar Clear
Basınç 1012
Değiştir No Significant change
Ham LOWI 201550Z AUTO 28005KT 9999 NCD 25/17 Q1012 NOSIG

VFR

26°C / 15°C

[Daha fazla]
Rüzgar 270º 4kt
Görünürlük 9700m
Hava -
Bulutlar Clear
Basınç 1012
Değiştir No Significant change
Ham LOWI 201520Z AUTO 27004KT 9999 NCD 26/15 Q1012 NOSIG

VFR

26°C / 14°C

[Daha fazla]
Rüzgar 2kt
Görünürlük 9700m
Hava -
Bulutlar Clear
Basınç 1012
Değiştir No Significant change
Ham LOWI 201450Z AUTO VRB02KT 9999 NCD 26/14 Q1012 NOSIG

VFR

25°C / 16°C

[Daha fazla]
Rüzgar 310º variable 200º to 010º 3kt
Görünürlük 9700m
Hava -
Bulutlar Clear
Basınç 1012
Değiştir No Significant change
Ham LOWI 201420Z AUTO 31003KT 200V010 9999 NCD 25/16 Q1012 NOSIG

VFR

24°C / 15°C

[Daha fazla]
Rüzgar 270º variable 240º to 300º 4kt
Görünürlük 9700m
Hava -
Bulutlar Clear
Basınç 1013
Değiştir No Significant change
Ham LOWI 201350Z AUTO 27004KT 240V300 9999 NCD 24/15 Q1013 NOSIG

VFR

23°C / 17°C

[Daha fazla]
Rüzgar 290º variable 240º to 340º 4kt
Görünürlük 9700m
Hava -
Bulutlar Clear
Basınç 1013
Değiştir No Significant change
Ham LOWI 201320Z AUTO 29004KT 240V340 9999 NCD 23/17 Q1013 NOSIG

VFR

23°C / 17°C

[Daha fazla]
Rüzgar 260º variable 220º to 280º 5kt
Görünürlük 9700m
Hava -
Bulutlar Clear
Basınç 1014
Değiştir No Significant change
Ham LOWI 201250Z AUTO 26005KT 220V280 9999 NCD 23/17 Q1014 NOSIG

VFR

22°C / 15°C

[Daha fazla]
Rüzgar 3kt
Görünürlük 9700m
Hava -
Bulutlar Clear
Basınç 1014
Değiştir No Significant change
Ham LOWI 201220Z AUTO VRB03KT 9999 NCD 22/15 Q1014 NOSIG

VFR

21°C / 16°C

[Daha fazla]
Rüzgar 290º variable 260º to 320º 4kt
Görünürlük 9700m
Hava -
Bulutlar Clear
Basınç 1015
Değiştir No Significant change
Ham LOWI 201150Z AUTO 29004KT 260V320 9999 NCD 21/16 Q1015 NOSIG

VFR

21°C / 16°C

[Daha fazla]
Rüzgar 270º variable 240º to 300º 5kt
Görünürlük 9700m
Hava -
Bulutlar Few Clouds 1200ft
Basınç 1016
Değiştir No Significant change
Ham LOWI 201120Z AUTO 27005KT 240V300 9999 FEW012 21/16 Q1016 NOSIG

VFR

20°C / 17°C

[Daha fazla]
Rüzgar 250º variable 200º to 280º 4kt
Görünürlük 9700m
Hava -
Bulutlar Few Clouds 1000ft
Basınç 1016
Değiştir No Significant change
Ham LOWI 201050Z AUTO 25004KT 200V280 9999 FEW010 20/17 Q1016 NOSIG

İnnsbruck (LOWI) için TAF

From till


Maximum Temperature 29ºC on . Minimum Temperature 15ºC on .
From till Wind 4kt. Visibility 9700m. Nil Significant Cloud.
Temporarly from till Wind 270º 12kt. Showers Rain .
With 40% probability, Temporarly from till Wind 270º 15kt. Gust 35kt. Thunderstorm Rain . Few Clouds 4000ft. Broken Clouds 5000ft.

Ham: TAF LOWI 201715Z 2018/2118 VRB04KT CAVOK TX29/2113Z TN15/2104Z TEMPO 2112/2117 27012KT SHRA PROB40 TEMPO 2112/2115 27015G35KT TSRA FEW040CB BKN050

İnnsbruck için radar ve yağış nowcast

Çise
Hafif
Orta
Ağır
Çok ağır
Dolu

Konum işaretleyicisi İnnsbruck üzerine yerleştirilir. Bu animasyon, seçilen zaman aralığı için yağış radarının yanı sıra 2h tahminini gösterir. Turuncu çarpılar yıldırımı göstermektedir. Veriler nowcast.de tarafından sağlanmıştır (ABD, Avrupa ve Avustralya'da erişimi mevcuttur). Çiseleyen yağmur veya hafif kar yağışı radarda görünmeyebilir. Yağış yoğunluğu turkuazdan kırmızıya kadar değişen renklerle kodlanmıştır.

İnnsbruck için şu anki uydu ve yağmur görüntüleri, Avusturya

Konum işaretleyici İnnsbruck üzerine yerleştirilir. [Daha fazla]

Gerçek zamanlı uydu görüntüsü gündüz süresince görülür ışığı gece süresince kızılötesi ışınım ile birleştirir. Gece kızılötesi ışınım sıcaklık farklarını algılayabildiğinden dolayı görüntü karanlık değildir. Ancak düşük bulutları ve sisi yer sıcaklığından ayırmak zordur ve bu nedenle gece boyunca neredeyse görünmez olabilirler. Avrupa için Meteosat uydu görüntüleri gerçek zamanlı olarak her 5 dakikada bir güncellenir. GOES-16/GOES-17 (Kuzey ve Güney Amerika) ve Himawari (Asya) görüntüleri her 10 dakikada bir güncellenir.

Yağış radar ve uydulardan tahmin edilir. Uydulardan elde edilen yağış tahminleri geceleri gündüze göre daha az doğrudur.

© 2024 meteoblue, NOAA Satellites GOES-16 and EUMETSAT. nowcast tarafından sağlanan şimşek verileri.

En başa git
×
Merhaba,
bir reklam engelleyici kullanıyormuşsunuz gibi görünüyor.

Reklam, ücretsiz web sitemizi benzersiz ayrıntı ve doğrulukla sürdürmek için çok önemlidir.

Lütfen reklam engelleyicinizde www.meteoblue.com beyaz listesini beyaz listeye alın veya ürünlerimizden birini satın almayı düşünün:

Zaten bir aboneliğiniz var mı?
O halde lütfen giriş yapın.